Location: Unspecified
(0.0000°N, 0.0000°E)
Time: 22:04:36
(UTC+02:00)

Ariane H10+ - Visible Passes

Search period start: 30 March 2015 00:00
Search period end: 09 April 2015 00:00
Orbit: 304 x 31742 km, 6.9° (Epoch: 29 March)

Date Brightness Start Highest point End Pass type
(mag) Time Alt. Az. Time Alt. Az. Time Alt. Az.
31 Mar 8.5 01:00:56 10° W 02:44:16 85° SE 09:38:16 10° E visible
31 Mar 4.5 19:16:09 10° WSW 19:19:30 59° S 19:35:31 10° E visible
01 Apr 6.1 06:34:01 23° W 13:33:17 64° N 13:37:39 10° E visible
01 Apr 8.0 23:14:40 10° WSW 23:34:15 77° S 07:50:46 10° E visible
03 Apr 7.5 03:25:26 10° W 11:44:45 71° N 11:53:32 10° E visible
03 Apr 6.6 21:29:38 10° WSW 21:38:27 70° S 05:57:37 10° E visible
05 Apr 8.7 01:32:09 10° W 09:48:31 77° N 10:08:10 10° E visible
05 Apr 5.1 19:45:01 10° WSW 19:49:24 61° S 20:20:37 10° E visible
06 Apr 5.6 07:06:44 14° W 14:02:42 64° N 14:06:03 10° E visible
06 Apr 8.3 23:43:37 10° W 00:12:16 80° S 08:20:35 10° E visible
08 Apr 7.0 03:59:15 10° W 12:14:17 70° N 12:20:58 10° E visible
